Location: Bruderhein
(53.8035°N, 112.9265°W)
Time: 01:34:50
(UTC+00:00)

STRAND 1 - Pass Details

Date: 11 April 2023
Orbit: 767 x 779 km, 98.4° (Epoch: 31 May)

Event Time Altitude Azimuth Distance (km) Brightness Sun altitude
Rises 04:20:20 0° 8° (N) 3,253 ? -15.9°
Reaches altitude 10° 04:23:13 10° 352° (N) 2,322 ? -16.3°
Maximum altitude 04:26:46 19° 307° (NW) 1,754 ? -16.7°
Drops below altitude 10° 04:30:19 10° 263° (W) 2,313 ? -17.1°
Sets 04:33:11 0° 246° (WSW) 3,236 ? -17.4°
